QPF
0.00 0.00 0.00 0.00 0.00 0.00 0.00 0.00 0.00 0.00 0.00 0.00 0.00 0.00 0.00 0.00 0.00 0.00 0.00 0.00 0.00 0.00 0.00 0.00 0.00 0.00 0.00 0.00 0.00 0.00 0.00 0.00 0.00 0.00 0.00 0.00 0.00 0.00 0.00 0.00 0.00 0.00 0.00 0.00 0.00 0.00 0.00 0.00 0.01
0.00 0.00 0.00 0.00 0.00 0.00 0.00 0.00 0.00 0.00 0.00 0.00 0.00 0.00 0.00 0.00 0.00 0.00 0.00 0.00 0.00 0.00 0.00 0.00 0.00 0.00 0.00 0.00 0.00 0.00 0.00 0.00 0.00 0.00 0.00 0.00 0.00 0.00 0.00 0.00 0.00 0.00 0.00 0.00 0.00 0.00 0.00 0.00 0.00
0.00 0.00 0.00 0.00 0.00 0.00 0.00 0.00 0.00 0.00 0.00 0.00 0.00 0.00 0.00 0.00 0.00 0.00 0.00 0.00 0.00 0.00 0.00 0.00 0.00 0.00 0.00 0.00 0.00 0.00 0.00 0.00 0.00 0.00 0.00 0.00 0.00 0.00 0.00 0.00 0.00 0.00 0.00 0.00 0.00 0.00 0.00 0.00 0.00
0.00 0.00 0.00 0.00 0.00 0.00 0.00 0.00 0.00 0.00 0.00 0.00 0.00 0.00 0.00 0.00 0.00 0.00 0.00 0.00 0.00 0.00 0.00 0.00 0.00 0.00 0.00 0.00 0.00 0.00 0.00 0.00 0.00 0.00 0.00 0.00 0.00 0.00 0.00 0.00 0.00 0.00 0.00 0.00 0.00 0.00 0.00 0.00 0.00
0.00 0.00 0.00 0.00 0.00 0.00 0.00 0.00 0.00 0.00 0.00 0.00 0.00 0.00 0.00 0.00 0.00 0.00 0.00 0.00 0.00 0.00 0.00 0.00 0.00 0.00 0.00 0.00 0.00 0.00 0.00 0.00 0.00 0.00 0.00 0.00 0.00 0.00 0.00 0.00 0.00 0.00 0.00 0.00 0.00 0.00 0.00 0.00 0.00
0.00 0.00 0.00 0.00 0.00 0.00 0.00 0.00 0.00 0.00 0.00 0.00 0.00 0.00 0.00 0.00 0.00 0.00 0.00 0.00 0.00 0.00 0.00 0.00 0.00 0.00 0.00 0.00 0.00 0.00 0.00 0.00 0.00 0.00 0.00 0.00 0.00 0.00 0.00 0.00 0.00 0.00 0.00 0.00 0.00 0.00 0.00 0.00 0.00
0.00 0.00 0.00 0.00 0.00 0.00 0.00 0.00 0.00 0.00 0.00 0.00 0.00 0.00 0.00 0.00 0.00 0.00 0.00 0.00 0.00 0.00 0.00 0.00 0.00 0.00 0.00 0.00 0.00 0.00 0.00 0.00 0.00 0.00 0.00 0.00 0.00 0.00 0.00 0.00 0.00 0.00 0.00 0.00 0.00 0.00 0.00 0.00 0.00
0.00 0.00 0.00 0.00 0.00 0.00 0.00 0.00 0.00 0.00 0.00 0.00 0.00 0.00 0.00 0.00 0.00 0.00 0.00 0.00 0.00 0.00 0.00 0.00 0.00 0.00 0.00 0.00 0.00 0.00 0.00 0.00 0.00 0.00 0.00 0.00 0.00 0.00 0.00 0.00 0.00 0.00 0.00 0.00 0.00 0.00 0.00 0.00 0.00
0.00 0.00 0.00 0.00 0.00 0.00 0.00 0.00 0.00 0.00 0.00 0.00 0.00 0.00 0.00 0.00 0.00 0.00 0.00 0.00 0.00 0.00 0.00 0.00 0.00 0.00 0.00 0.00 0.00 0.00 0.00 0.00 0.00 0.00 0.00 0.00 0.00 0.00 0.00 0.00 0.00 0.00 0.00 0.00 0.00 0.00 0.00 0.00 0.00
0.00 0.00 0.00 0.00 0.00 0.00 0.00 0.00 0.00 0.00 0.00 0.00 0.00 0.00 0.00 0.00 0.00 0.00 0.00 0.00 0.00 0.00 0.00 0.00 0.00 0.00 0.00 0.00 0.00 0.00 0.00 0.00 0.00 0.00 0.00 0.00 0.00 0.00 0.00 0.00 0.00 0.00 0.00 0.00 0.00 0.00 0.00 0.00 0.00
0.00 0.00 0.00 0.00 0.00 0.00 0.00 0.00 0.00 0.00 0.00 0.00 0.00 0.00 0.00 0.00 0.00 0.00 0.00 0.00 0.00 0.00 0.00 0.00 0.00 0.00 0.00 0.00 0.00 0.01 0.00 0.00 0.00 0.00 0.00 0.00 0.00 0.00 0.00 0.00 0.00 0.00 0.00 0.00 0.00 0.00 0.00 0.00 0.00
0.00 0.00 0.00 0.00 0.00 0.00 0.00 0.00 0.00 0.00 0.00 0.00 0.00 0.00 0.00 0.00 0.00 0.00 0.00 0.00 0.00 0.00 0.00 0.00 0.00 0.00 0.00 0.01 0.04 0.06 0.00 0.00 0.00 0.00 0.00 0.00 0.00 0.00 0.00 0.00 0.00 0.00 0.00 0.00 0.00 0.00 0.00 0.00 0.00
0.00 0.00 0.00 0.00 0.00 0.00 0.00 0.00 0.00 0.00 0.00 0.00 0.00 0.00 0.00 0.00 0.00 0.00 0.00 0.00 0.00 0.00 0.00 0.00 0.00 0.00 0.00 0.02 0.14 0.06 0.02 0.02 0.00 0.00 0.00 0.00 0.00 0.00 0.00 0.00 0.00 0.00 0.00 0.00 0.00 0.00 0.00 0.00 0.00
0.00 0.00 0.00 0.00 0.00 0.00 0.00 0.00 0.00 0.00 0.00 0.00 0.00 0.00 0.00 0.00 0.00 0.00 0.00 0.00 0.00 0.00 0.00 0.00 0.00 0.00 0.00 0.00 0.05 0.12 0.13 0.14 0.09 0.01 0.00 0.00 0.00 0.00 0.00 0.00 0.00 0.00 0.00 0.00 0.00 0.00 0.00 0.00 0.00
0.00 0.00 0.00 0.00 0.00 0.00 0.00 0.00 0.00 0.00 0.00 0.00 0.00 0.00 0.00 0.00 0.00 0.00 0.00 0.00 0.00 0.00 0.00 0.00 0.00 0.00 0.00 0.00 0.00 0.11 0.15 0.19 0.20 0.12 0.03 0.04 0.00 0.00 0.00 0.00 0.00 0.00 0.00 0.00 0.00 0.00 0.00 0.00 0.00
0.00 0.00 0.00 0.00 0.00 0.00 0.00 0.00 0.00 0.00 0.00 0.00 0.00 0.00 0.00 0.00 0.00 0.00 0.00 0.00 0.00 0.00 0.00 0.00 0.00 0.00 0.00 0.00 0.00 0.01 0.09 0.28 0.29 0.28 0.21 0.18 0.11 0.03 0.00 0.00 0.00 0.00 0.00 0.00 0.00 0.00 0.00 0.00 0.00
0.00 0.00 0.00 0.00 0.00 0.00 0.00 0.00 0.00 0.00 0.00 0.00 0.00 0.00 0.00 0.00 0.00 0.00 0.00 0.00 0.00 0.00 0.00 0.00 0.00 0.00 0.00 0.00 0.00 0.00 0.00 0.04 0.20 0.30 0.30 0.16 0.11 0.07 0.04 0.00 0.00 0.00 0.00 0.00 0.00 0.00 0.00 0.00 0.00
0.00 0.00 0.00 0.00 0.00 0.00 0.00 0.00 0.00 0.00 0.00 0.00 0.00 0.00 0.00 0.00 0.00 0.00 0.00 0.00 0.00 0.00 0.00 0.00 0.00 0.00 0.00 0.00 0.00 0.00 0.00 0.00 0.03 0.14 0.22 0.23 0.25 0.23 0.19 0.04 0.00 0.00 0.00 0.00 0.00 0.00 0.00 0.00 0.00
0.00 0.00 0.00 0.00 0.00 0.00 0.00 0.00 0.00 0.00 0.00 0.00 0.00 0.00 0.00 0.00 0.00 0.00 0.00 0.00 0.00 0.00 0.00 0.00 0.00 0.00 0.00 0.00 0.00 0.00 0.00 0.00 0.00 0.01 0.05 0.17 0.33 0.52 0.41 0.15 0.02 0.00 0.00 0.00 0.00 0.00 0.00 0.00 0.00
0.00 0.00 0.00 0.00 0.00 0.00 0.00 0.00 0.00 0.00 0.00 0.00 0.00 0.00 0.00 0.00 0.00 0.00 0.00 0.00 0.00 0.00 0.00 0.00 0.00 0.00 0.00 0.00 0.00 0.00 0.00 0.00 0.00 0.00 0.00 0.04 0.16 0.32 0.41 0.27 0.07 0.01 0.00 0.00 0.00 0.00 0.00 0.00 0.00
0.00 0.00 0.00 0.00 0.00 0.00 0.00 0.00 0.00 0.00 0.00 0.00 0.00 0.00 0.00 0.00 0.00 0.00 0.00 0.00 0.00 0.00 0.00 0.00 0.00 0.00 0.00 0.00 0.00 0.00 0.00 0.00 0.00 0.00 0.00 0.00 0.04 0.21 0.31 0.28 0.21 0.08 0.03 0.00 0.00 0.00 0.00 0.00 0.00
0.00 0.00 0.00 0.00 0.00 0.00 0.00 0.00 0.00 0.00 0.00 0.00 0.00 0.00 0.00 0.00 0.00 0.00 0.00 0.00 0.00 0.00 0.00 0.00 0.00 0.00 0.00 0.00 0.00 0.00 0.00 0.00 0.00 0.00 0.00 0.00 0.00 0.08 0.21 0.41 0.44 0.33 0.10 0.01 0.00 0.00 0.00 0.00 0.00
0.00 0.00 0.00 0.00 0.00 0.00 0.00 0.00 0.00 0.00 0.00 0.00 0.00 0.00 0.00 0.00 0.00 0.00 0.00 0.00 0.00 0.00 0.00 0.00 0.00 0.00 0.00 0.00 0.00 0.00 0.00 0.00 0.00 0.00 0.00 0.00 0.00 0.03 0.12 0.37 0.66 0.70 0.37 0.05 0.01 0.00 0.00 0.00 0.00
0.00 0.00 0.00 0.00 0.00 0.00 0.00 0.00 0.00 0.00 0.00 0.00 0.00 0.00 0.00 0.00 0.00 0.00 0.00 0.00 0.00 0.00 0.00 0.00 0.00 0.00 0.00 0.00 0.00 0.00 0.00 0.01 0.01 0.01 0.00 0.00 0.00 0.00 0.05 0.16 0.44 0.87 0.83 0.33 0.05 0.02 0.02 0.00 0.00
0.00 0.00 0.00 0.00 0.00 0.00 0.00 0.00 0.00 0.00 0.00 0.00 0.00 0.00 0.00 0.00 0.00 0.00 0.00 0.00 0.00 0.00 0.00 0.00 0.00 0.00 0.00 0.00 0.00 0.00 0.01 0.01 0.01 0.00 0.00 0.00 0.00 0.00 0.01 0.11 0.26 0.47 0.74 0.40 0.14 0.08 0.04 0.03 0.00
0.00 0.00 0.00 0.00 0.00 0.00 0.00 0.00 0.00 0.00 0.00 0.00 0.00 0.00 0.00 0.00 0.00 0.00 0.00 0.00 0.00 0.00 0.00 0.00 0.00 0.00 0.00 0.00 0.00 0.00 0.00 0.00 0.00 0.00 0.00 0.00 0.00 0.00 0.00 0.08 0.46 0.51 0.66 0.76 0.31 0.11 0.06 0.04 0.00
0.00 0.00 0.00 0.00 0.00 0.00 0.00 0.00 0.00 0.00 0.00 0.00 0.00 0.00 0.00 0.00 0.00 0.00 0.00 0.00 0.00 0.00 0.00 0.00 0.01 0.00 0.00 0.00 0.00 0.00 0.00 0.00 0.00 0.00 0.00 0.00 0.00 0.00 0.00 0.06 0.71 0.94 1.09 0.90 1.03 0.41 0.11 0.06 0.02
0.00 0.00 0.00 0.00 0.00 0.00 0.00 0.00 0.00 0.00 0.00 0.00 0.00 0.00 0.00 0.00 0.00 0.00 0.00 0.00 0.00 0.00 0.00 0.00 0.01 0.01 0.01 0.01 0.00 0.00 0.00 0.00 0.00 0.00 0.00 0.00 0.00 0.00 0.00 0.09 0.54 1.05 1.03 1.21 1.03 0.60 0.20 0.09 0.09
0.00 0.00 0.00 0.00 0.00 0.00 0.00 0.00 0.00 0.00 0.00 0.00 0.00 0.00 0.00 0.00 0.00 0.00 0.00 0.00 0.00 0.00 0.00 0.00 0.01 0.01 0.02 0.03 0.01 0.01 0.02 0.03 0.04 0.04 0.02 0.01 0.01 0.00 0.00 0.01 0.36 0.54 0.40 0.49 0.54 0.52 0.18 0.12 0.13
0.00 0.00 0.00 0.00 0.00 0.00 0.00 0.00 0.00 0.00 0.00 0.00 0.00 0.00 0.00 0.00 0.00 0.00 0.00 0.00 0.00 0.00 0.00 0.00 0.01 0.01 0.02 0.04 0.04 0.06 0.12 0.16 0.17 0.15 0.11 0.05 0.03 0.01 0.00 0.00 0.23 1.17 0.99 0.61 0.51 0.54 0.21 0.12 0.11
MSLP
1013.44 1013.01 1012.96 1013.23 1014.60 1014.75 1013.88 1012.20 1010.43 1009.23 1008.27 1007.44 1007.07 1007.59 1008.43 1008.68 1009.24 1010.46 1009.73 1009.73 1010.02 1010.21 1010.64 1010.90 1010.98 1011.26 1011.26 1011.25 1011.17 1011.27 1011.49 1011.68 1011.99 1012.33 1012.59 1013.01 1013.32 1013.58 1013.88 1014.22 1014.38 1014.59 1014.60 1014.74 1015.14 1015.25 1015.58 1015.63 1015.68
1013.44 1012.99 1013.26 1014.09 1014.87 1015.14 1013.61 1011.68 1010.29 1008.61 1007.61 1007.13 1007.16 1007.91 1008.29 1009.36 1009.34 1009.61 1009.82 1009.86 1009.96 1010.14 1010.70 1010.99 1011.18 1011.32 1011.56 1011.63 1011.55 1011.54 1011.78 1011.95 1012.18 1012.47 1012.73 1012.93 1013.24 1013.61 1013.88 1014.19 1014.49 1014.78 1014.95 1014.94 1015.26 1015.34 1015.69 1015.86 1015.82
1013.28 1013.38 1014.38 1014.93 1015.09 1014.94 1013.27 1011.04 1010.29 1008.67 1007.80 1007.37 1007.42 1007.71 1008.66 1009.92 1009.76 1009.93 1010.05 1009.59 1010.02 1010.65 1010.78 1011.12 1011.24 1011.51 1011.76 1011.91 1011.83 1011.81 1011.93 1012.12 1012.19 1012.48 1012.65 1013.01 1013.21 1013.55 1014.01 1014.19 1014.47 1014.85 1014.98 1015.16 1015.33 1015.52 1015.81 1015.92 1016.08
1013.45 1014.04 1014.99 1015.12 1014.92 1013.95 1012.77 1011.13 1009.76 1009.16 1007.96 1007.57 1007.72 1008.95 1009.75 1009.75 1009.78 1009.84 1009.91 1010.03 1010.49 1010.89 1010.98 1011.34 1011.35 1011.45 1011.81 1012.00 1011.83 1011.98 1012.14 1012.29 1012.37 1012.55 1012.58 1012.81 1013.22 1013.49 1013.95 1014.26 1014.44 1014.76 1015.02 1015.28 1015.56 1015.57 1015.91 1016.05 1016.22
1013.91 1014.97 1015.59 1015.51 1014.51 1013.72 1012.33 1010.77 1009.32 1009.36 1008.85 1008.70 1008.49 1010.30 1010.11 1010.29 1010.06 1010.16 1010.10 1010.27 1010.46 1011.06 1011.11 1011.27 1011.31 1011.48 1011.69 1011.91 1011.96 1012.13 1012.32 1012.46 1012.59 1012.81 1012.81 1012.95 1013.14 1013.50 1013.87 1014.19 1014.54 1014.74 1015.00 1015.38 1015.71 1015.77 1015.93 1016.08 1016.17
1014.82 1015.40 1015.94 1015.80 1014.66 1013.44 1012.16 1011.17 1010.25 1010.02 1009.68 1009.44 1009.84 1010.17 1010.74 1011.00 1010.24 1010.22 1010.58 1010.93 1010.97 1011.08 1011.30 1011.49 1011.65 1011.60 1011.77 1012.02 1012.25 1012.41 1012.62 1012.71 1012.79 1012.96 1013.05 1013.17 1013.30 1013.53 1013.85 1014.09 1014.41 1014.80 1015.02 1015.31 1015.64 1015.93 1016.01 1016.17 1016.27
1015.10 1015.81 1015.81 1015.33 1014.56 1013.51 1012.46 1011.37 1011.24 1011.20 1010.44 1010.13 1009.93 1010.81 1011.59 1011.18 1011.28 1010.81 1011.04 1011.27 1011.49 1011.53 1011.69 1011.74 1011.88 1011.79 1011.63 1011.95 1012.24 1012.49 1012.68 1012.82 1012.93 1013.13 1013.26 1013.37 1013.51 1013.70 1013.90 1014.11 1014.36 1014.65 1015.03 1015.32 1015.55 1015.86 1016.06 1016.18 1016.40
1014.71 1015.71 1015.67 1014.94 1014.29 1013.63 1012.76 1012.10 1011.83 1011.82 1011.43 1010.85 1010.33 1011.60 1012.13 1011.85 1011.85 1011.29 1011.43 1011.90 1012.03 1012.02 1011.94 1011.90 1011.88 1011.89 1011.96 1011.85 1012.10 1012.48 1012.69 1012.80 1012.95 1013.17 1013.37 1013.55 1013.70 1013.88 1014.01 1014.21 1014.41 1014.58 1014.82 1015.14 1015.49 1015.76 1016.01 1016.15 1016.38
1014.48 1015.50 1015.56 1014.65 1013.89 1013.45 1012.91 1012.69 1012.42 1012.17 1012.04 1011.85 1012.01 1012.20 1012.37 1012.07 1011.39 1011.54 1012.23 1012.36 1012.44 1012.49 1012.62 1012.47 1012.48 1012.25 1012.17 1012.29 1012.17 1012.17 1012.56 1012.82 1012.97 1013.06 1013.31 1013.56 1013.76 1013.93 1014.12 1014.27 1014.39 1014.63 1014.77 1014.95 1015.29 1015.65 1015.89 1016.10 1016.22
1014.67 1015.38 1014.83 1013.96 1013.44 1013.23 1013.04 1013.02 1013.03 1012.89 1012.57 1012.46 1012.20 1012.05 1012.27 1012.58 1012.63 1012.95 1013.69 1014.22 1014.38 1013.80 1013.62 1013.32 1012.70 1012.62 1012.73 1012.38 1012.20 1012.21 1012.21 1012.59 1012.79 1012.96 1013.20 1013.35 1013.51 1013.70 1013.86 1014.11 1014.30 1014.51 1014.84 1015.06 1015.20 1015.48 1015.79 1016.00 1016.16
1014.61 1014.78 1014.07 1013.43 1013.33 1012.85 1012.96 1013.16 1013.32 1013.52 1013.46 1013.26 1013.36 1013.30 1013.08 1014.15 1014.70 1015.26 1015.71 1016.25 1016.28 1016.10 1015.35 1014.82 1014.48 1013.81 1012.79 1012.36 1012.50 1012.68 1012.39 1012.27 1012.52 1012.76 1013.03 1013.40 1013.41 1013.60 1013.77 1014.09 1014.29 1014.44 1014.64 1014.91 1015.15 1015.47 1015.72 1015.92 1016.04
1014.85 1014.19 1014.03 1013.49 1013.68 1013.33 1013.23 1013.08 1013.09 1013.22 1013.36 1013.36 1013.73 1014.95 1015.15 1015.81 1016.50 1017.04 1017.04 1017.07 1016.69 1016.45 1016.63 1016.24 1015.79 1015.25 1014.40 1013.12 1012.34 1012.68 1013.04 1012.14 1011.97 1012.28 1012.49 1012.73 1013.41 1013.48 1013.45 1013.64 1013.84 1014.05 1014.40 1014.71 1014.91 1015.24 1015.45 1015.76 1015.90
1014.65 1014.39 1014.15 1013.77 1013.50 1013.42 1013.29 1013.47 1013.83 1013.72 1013.62 1014.47 1015.62 1016.16 1017.12 1017.65 1018.15 1018.53 1018.60 1018.21 1017.68 1017.10 1017.25 1017.22 1016.39 1015.78 1015.30 1014.75 1014.01 1012.69 1011.79 1012.26 1011.39 1011.03 1011.61 1012.12 1012.21 1013.08 1013.16 1013.11 1013.36 1013.56 1013.91 1014.31 1014.59 1014.82 1015.10 1015.37 1015.61
1014.90 1014.69 1014.07 1013.60 1013.41 1013.65 1013.88 1014.08 1014.34 1014.59 1015.59 1016.35 1016.92 1018.10 1018.74 1019.08 1019.56 1019.40 1018.65 1018.85 1018.75 1018.59 1018.03 1017.72 1016.82 1016.21 1015.77 1015.64 1015.09 1014.35 1012.33 1011.05 1011.67 1011.07 1010.68 1011.00 1011.65 1012.04 1012.63 1012.71 1012.73 1012.91 1013.29 1013.72 1014.13 1014.33 1014.68 1014.91 1015.03
1015.05 1014.91 1014.19 1013.29 1013.17 1013.62 1014.11 1014.89 1015.29 1016.50 1016.25 1017.78 1018.80 1019.60 1020.14 1020.61 1020.61 1020.69 1020.76 1020.32 1020.09 1019.63 1018.99 1018.10 1017.31 1016.98 1016.36 1015.78 1015.24 1014.38 1013.49 1012.01 1010.91 1010.44 1010.01 1010.20 1010.47 1011.06 1011.73 1012.06 1012.07 1012.13 1012.44 1012.99 1013.52 1013.99 1014.13 1014.52 1014.69
1015.41 1015.37 1014.92 1013.67 1013.52 1013.78 1014.59 1016.12 1017.89 1017.85 1017.49 1019.40 1020.31 1020.98 1021.27 1021.38 1021.67 1021.72 1021.65 1021.32 1020.76 1020.10 1019.34 1018.66 1017.99 1017.60 1017.26 1016.45 1015.31 1014.29 1013.32 1012.66 1011.08 1010.30 1009.90 1009.55 1009.62 1010.04 1010.65 1011.36 1011.38 1011.34 1011.68 1012.19 1012.99 1013.44 1013.85 1013.92 1014.16
1016.02 1015.60 1015.23 1014.40 1013.97 1014.41 1015.36 1017.43 1019.23 1019.61 1019.38 1020.56 1021.41 1021.90 1022.13 1022.29 1022.42 1022.33 1022.08 1021.81 1021.33 1020.75 1019.89 1019.19 1018.77 1018.06 1017.33 1016.87 1015.74 1014.51 1013.45 1012.52 1011.17 1009.82 1008.96 1009.24 1008.74 1009.18 1009.82 1010.26 1010.52 1010.62 1011.13 1011.38 1012.05 1012.62 1012.99 1013.35 1013.49
1015.94 1015.76 1015.33 1014.82 1014.79 1014.93 1016.11 1018.76 1020.43 1020.93 1020.88 1021.90 1022.46 1022.71 1022.84 1022.82 1022.81 1022.78 1022.54 1022.30 1021.89 1021.46 1020.96 1020.36 1019.59 1018.93 1017.94 1016.85 1016.10 1014.93 1013.69 1012.46 1011.49 1010.01 1008.73 1008.31 1008.19 1008.27 1008.62 1008.98 1009.16 1009.69 1010.32 1010.59 1011.22 1011.73 1012.18 1012.36 1012.53
1015.64 1015.53 1015.46 1015.22 1014.91 1015.59 1017.17 1019.29 1020.78 1021.50 1021.61 1022.53 1023.18 1023.49 1023.63 1023.52 1023.48 1023.01 1022.68 1022.26 1021.73 1021.51 1021.07 1020.65 1019.97 1019.25 1018.29 1017.15 1016.23 1015.20 1014.28 1012.69 1011.41 1010.20 1008.57 1007.47 1006.96 1007.18 1007.76 1007.47 1007.97 1008.08 1008.64 1009.08 1009.96 1010.80 1011.26 1011.60 1011.86
1015.20 1015.34 1015.46 1015.26 1015.29 1016.15 1017.83 1020.41 1021.88 1022.41 1023.19 1023.85 1024.33 1024.62 1024.78 1024.48 1024.10 1023.63 1023.11 1022.78 1022.45 1022.15 1021.45 1020.63 1020.21 1019.73 1018.87 1017.85 1017.00 1016.15 1014.45 1013.01 1011.83 1010.23 1008.43 1007.16 1006.55 1006.29 1006.35 1006.88 1006.70 1006.82 1006.66 1007.56 1008.20 1009.30 1010.14 1010.60 1010.77
1015.00 1015.18 1015.36 1015.61 1015.86 1016.66 1018.01 1020.36 1021.64 1022.75 1023.51 1024.30 1024.92 1025.39 1025.41 1025.22 1024.74 1024.39 1024.01 1023.62 1023.29 1022.86 1022.12 1021.57 1021.16 1020.05 1019.06 1018.21 1017.00 1015.64 1014.18 1012.75 1011.56 1010.14 1008.84 1007.31 1006.39 1005.79 1005.37 1005.35 1006.03 1006.33 1005.57 1006.64 1006.91 1007.14 1008.64 1009.38 1009.87
1014.88 1014.92 1015.37 1015.94 1016.78 1017.67 1018.07 1020.04 1021.34 1022.74 1023.89 1024.64 1025.37 1025.77 1026.04 1026.06 1026.02 1025.83 1025.26 1024.44 1023.91 1023.52 1022.84 1022.39 1021.53 1020.51 1019.36 1018.34 1017.18 1016.03 1014.47 1012.78 1011.63 1010.83 1009.17 1008.01 1006.71 1005.33 1004.61 1004.62 1005.11 1004.24 1004.58 1004.96 1006.04 1005.51 1006.55 1008.20 1008.83
1014.66 1014.97 1015.73 1016.45 1017.41 1018.44 1019.10 1020.57 1021.15 1022.58 1023.85 1024.85 1025.66 1026.01 1026.31 1026.49 1026.39 1025.92 1025.40 1025.15 1024.72 1023.97 1023.23 1022.57 1021.53 1020.70 1019.63 1018.58 1017.39 1016.04 1014.59 1013.35 1011.64 1010.44 1009.06 1007.65 1006.47 1005.07 1004.00 1004.32 1004.91 1005.23 1003.95 1004.17 1004.79 1004.85 1005.53 1006.66 1007.50
1014.61 1015.21 1016.00 1016.95 1018.25 1018.90 1019.01 1020.53 1021.76 1023.20 1024.47 1025.21 1025.85 1026.30 1026.63 1026.71 1026.50 1026.08 1025.86 1025.44 1024.92 1023.91 1022.97 1022.49 1021.53 1020.56 1019.41 1018.36 1017.29 1016.28 1014.87 1013.42 1011.75 1010.43 1009.14 1007.76 1006.30 1004.96 1003.62 1003.86 1004.45 1004.48 1004.47 1001.71 1003.59 1004.33 1004.75 1005.37 1006.49
1014.57 1015.90 1017.22 1018.29 1019.20 1018.90 1019.24 1020.74 1022.33 1023.58 1024.63 1025.47 1026.05 1026.66 1026.69 1026.63 1026.50 1026.16 1025.74 1025.51 1025.05 1023.62 1023.29 1022.42 1021.49 1020.21 1019.26 1018.30 1017.46 1016.39 1014.93 1013.67 1012.11 1010.77 1009.49 1008.20 1006.49 1005.14 1003.73 1003.29 1003.42 1003.94 1003.81 1003.94 1004.17 1004.49 1004.08 1004.73 1005.51
1014.49 1015.62 1017.13 1018.05 1019.15 1019.49 1020.01 1021.52 1022.91 1024.11 1024.94 1025.46 1026.10 1026.45 1026.71 1026.83 1026.78 1026.50 1026.21 1026.04 1025.20 1023.95 1023.72 1022.82 1021.75 1020.54 1019.62 1018.84 1017.81 1016.69 1015.21 1014.04 1012.58 1011.17 1009.86 1008.25 1006.71 1005.15 1004.15 1003.31 1003.19 1003.44 1003.67 1004.62 1003.91 1003.12 1003.31 1004.03 1004.30
1014.09 1015.12 1016.09 1017.53 1019.03 1020.56 1021.55 1023.09 1023.86 1024.51 1025.23 1025.62 1026.20 1026.56 1026.83 1026.89 1026.89 1026.81 1026.54 1026.25 1025.56 1024.66 1024.34 1023.37 1022.14 1021.20 1020.44 1019.47 1018.36 1016.79 1015.36 1014.15 1012.78 1011.47 1009.90 1008.34 1006.99 1005.70 1004.41 1003.19 1002.79 1002.89 1002.87 1002.63 1002.41 1001.49 1002.28 1003.02 1003.34
1013.58 1014.71 1016.06 1017.81 1019.54 1021.05 1022.03 1022.92 1023.79 1024.90 1025.56 1026.01 1026.57 1027.00 1027.33 1027.29 1027.22 1027.16 1026.93 1026.55 1025.97 1025.39 1024.76 1023.72 1022.64 1021.93 1020.98 1019.88 1018.61 1017.09 1015.82 1014.44 1012.85 1011.62 1010.42 1008.73 1007.22 1005.71 1004.61 1003.01 1002.19 1001.74 1001.11 1001.00 1002.32 1000.81 1002.01 1002.61 1002.81
1013.93 1014.77 1015.95 1017.56 1019.34 1020.95 1022.68 1023.47 1023.93 1025.13 1025.53 1026.02 1026.86 1027.31 1027.54 1027.55 1027.60 1027.41 1027.17 1026.79 1026.45 1025.83 1025.11 1024.05 1022.82 1022.10 1021.08 1020.30 1019.10 1017.78 1016.22 1014.67 1013.19 1012.27 1011.00 1009.00 1007.58 1005.66 1004.98 1003.42 1002.55 1001.89 1000.10 1001.45 1003.84 1002.22 1000.15 1002.01 1002.40
1013.36 1014.45 1015.97 1017.55 1019.69 1021.19 1022.77 1023.69 1024.24 1025.35 1025.72 1026.27 1027.19 1027.61 1027.91 1028.12 1028.18 1027.60 1027.36 1027.27 1026.89 1026.00 1025.36 1024.37 1023.26 1022.40 1021.51 1020.47 1019.27 1017.90 1016.76 1015.31 1014.11 1013.04 1012.00 1010.84 1009.23 1007.14 1005.99 1004.44 1003.77 1002.63 1001.71 1001.57 1004.26 1003.63 1002.39 1001.50 1002.00
Thickness
5755 5759 5760 5753 5721 5709 5707 5729 5758 5758 5764 5781 5787 5776 5765 5772 5759 5731 5786 5790 5787 5784 5780 5778 5777 5774 5775 5775 5775 5773 5770 5767 5763 5760 5756 5752 5748 5744 5740 5736 5734 5731 5730 5727 5722 5719 5715 5713 5712
5751 5755 5749 5731 5701 5687 5702 5731 5739 5759 5771 5781 5779 5769 5765 5753 5771 5771 5774 5785 5783 5781 5776 5772 5771 5770 5769 5769 5769 5769 5766 5763 5760 5756 5753 5751 5747 5742 5739 5735 5732 5729 5726 5725 5720 5718 5714 5711 5710
5747 5746 5725 5707 5689 5686 5701 5741 5742 5755 5765 5770 5767 5771 5761 5747 5763 5766 5775 5783 5778 5772 5772 5768 5767 5765 5764 5763 5764 5764 5762 5759 5758 5754 5753 5749 5746 5741 5736 5734 5731 5726 5724 5721 5718 5716 5712 5710 5707
5737 5728 5717 5696 5698 5708 5720 5727 5740 5745 5760 5765 5763 5744 5753 5762 5763 5769 5774 5775 5770 5768 5766 5762 5763 5763 5760 5759 5761 5760 5757 5755 5754 5751 5751 5748 5743 5740 5735 5732 5730 5725 5722 5718 5715 5714 5711 5708 5705
5726 5709 5687 5690 5696 5707 5722 5734 5744 5735 5741 5745 5752 5728 5736 5753 5762 5765 5767 5767 5765 5761 5761 5758 5760 5759 5758 5756 5756 5754 5752 5751 5750 5747 5746 5744 5742 5737 5733 5730 5727 5724 5721 5716 5713 5711 5708 5706 5704
5699 5697 5677 5675 5691 5709 5721 5727 5732 5728 5732 5736 5733 5730 5731 5742 5750 5759 5761 5757 5758 5757 5756 5753 5753 5754 5753 5751 5748 5747 5746 5745 5744 5743 5741 5739 5737 5734 5731 5728 5725 5721 5719 5715 5711 5708 5705 5703 5702
5690 5679 5675 5684 5687 5695 5710 5723 5714 5715 5719 5724 5739 5717 5725 5733 5736 5751 5754 5753 5750 5749 5749 5747 5745 5747 5748 5745 5743 5741 5740 5739 5739 5737 5736 5734 5732 5729 5727 5724 5722 5719 5716 5713 5709 5705 5703 5701 5698
5689 5679 5679 5682 5679 5680 5703 5711 5714 5707 5710 5728 5735 5705 5704 5724 5729 5738 5743 5742 5741 5739 5740 5740 5740 5740 5740 5740 5738 5735 5734 5734 5733 5732 5730 5728 5726 5724 5722 5720 5717 5716 5714 5711 5707 5703 5700 5698 5695
5696 5664 5658 5676 5684 5686 5701 5699 5705 5714 5708 5716 5717 5712 5717 5725 5730 5729 5724 5726 5727 5728 5726 5726 5726 5727 5728 5728 5731 5731 5728 5727 5727 5727 5725 5724 5722 5719 5717 5715 5713 5710 5710 5708 5705 5700 5697 5694 5693
5676 5656 5670 5683 5693 5693 5696 5695 5694 5695 5696 5699 5703 5713 5717 5715 5712 5706 5703 5696 5698 5708 5713 5716 5721 5720 5720 5723 5726 5726 5726 5723 5722 5721 5720 5719 5718 5717 5715 5712 5709 5707 5704 5702 5701 5698 5694 5692 5690
5677 5664 5681 5687 5691 5698 5692 5691 5694 5687 5682 5689 5691 5698 5705 5691 5687 5683 5680 5681 5680 5683 5693 5700 5703 5707 5713 5716 5715 5713 5715 5718 5716 5715 5712 5710 5712 5712 5711 5708 5705 5703 5701 5699 5696 5693 5691 5689 5687
5666 5678 5679 5685 5678 5683 5683 5690 5688 5686 5687 5694 5690 5677 5678 5673 5670 5667 5668 5668 5672 5675 5671 5677 5683 5689 5694 5701 5707 5703 5702 5709 5712 5711 5710 5709 5703 5705 5707 5706 5703 5701 5698 5696 5694 5690 5688 5685 5684
5665 5669 5672 5676 5677 5677 5680 5676 5676 5674 5684 5676 5666 5663 5657 5654 5652 5650 5650 5654 5658 5662 5660 5657 5665 5674 5679 5683 5686 5696 5706 5701 5709 5712 5708 5706 5708 5700 5700 5704 5702 5700 5697 5693 5691 5690 5686 5684 5682
5659 5658 5663 5671 5671 5670 5666 5666 5671 5670 5659 5657 5654 5644 5640 5638 5635 5636 5641 5639 5641 5643 5646 5646 5651 5655 5662 5666 5670 5676 5691 5703 5698 5701 5705 5704 5701 5700 5696 5698 5701 5699 5696 5692 5688 5688 5686 5684 5682
5656 5651 5656 5666 5667 5664 5662 5653 5653 5647 5654 5639 5633 5628 5623 5618 5618 5616 5615 5617 5618 5621 5628 5635 5639 5640 5644 5650 5658 5666 5673 5682 5694 5697 5700 5700 5697 5697 5692 5693 5697 5698 5696 5691 5688 5685 5685 5682 5681
5645 5643 5633 5655 5656 5659 5653 5630 5623 5633 5636 5620 5614 5608 5607 5604 5599 5598 5599 5601 5604 5608 5613 5619 5625 5626 5626 5631 5640 5652 5662 5665 5677 5686 5689 5692 5684 5689 5690 5687 5691 5695 5693 5691 5686 5684 5681 5681 5681
5629 5622 5626 5639 5653 5649 5642 5623 5613 5613 5616 5605 5596 5590 5588 5585 5584 5585 5584 5583 5586 5590 5596 5601 5605 5611 5616 5618 5625 5633 5645 5654 5664 5675 5682 5681 5683 5685 5679 5683 5686 5689 5689 5690 5687 5683 5681 5678 5678
5623 5622 5623 5627 5635 5637 5628 5595 5594 5595 5596 5586 5579 5576 5571 5570 5571 5570 5570 5570 5570 5572 5574 5578 5583 5588 5597 5606 5610 5616 5624 5638 5649 5661 5673 5678 5683 5685 5676 5678 5685 5686 5683 5685 5684 5682 5680 5680 5679
5626 5622 5617 5619 5628 5620 5607 5586 5580 5578 5577 5566 5561 5558 5556 5556 5555 5556 5557 5558 5559 5558 5560 5561 5566 5570 5575 5584 5592 5600 5605 5617 5631 5645 5659 5670 5679 5683 5678 5675 5678 5685 5685 5687 5682 5678 5676 5676 5676
5622 5614 5607 5615 5622 5613 5592 5570 5563 5563 5555 5549 5544 5540 5538 5538 5539 5541 5543 5542 5542 5541 5541 5545 5546 5549 5552 5559 5565 5573 5587 5600 5608 5625 5644 5657 5668 5676 5681 5677 5675 5677 5689 5684 5683 5678 5675 5676 5675
5611 5605 5604 5602 5606 5602 5586 5570 5564 5556 5550 5541 5531 5525 5524 5521 5523 5523 5523 5523 5521 5520 5521 5522 5521 5523 5530 5534 5543 5554 5569 5581 5592 5605 5621 5641 5652 5664 5674 5679 5669 5656 5681 5680 5682 5682 5675 5674 5673
5595 5608 5603 5597 5582 5571 5586 5560 5560 5548 5537 5529 5519 5511 5506 5505 5503 5501 5501 5502 5502 5499 5499 5498 5500 5501 5505 5508 5514 5524 5540 5556 5570 5582 5599 5616 5634 5651 5664 5669 5665 5659 5667 5679 5676 5686 5681 5672 5671
5595 5602 5592 5586 5574 5565 5565 5552 5553 5548 5531 5516 5506 5501 5494 5490 5489 5488 5487 5484 5483 5483 5483 5485 5486 5486 5490 5492 5499 5508 5522 5534 5550 5563 5581 5600 5616 5636 5653 5653 5650 5648 5637 5661 5670 5680 5674 5672 5672
5600 5591 5583 5574 5558 5531 5565 5559 5533 5518 5511 5504 5496 5487 5484 5478 5476 5474 5473 5473 5472 5474 5475 5472 5472 5475 5477 5482 5488 5494 5505 5520 5537 5550 5563 5578 5596 5615 5635 5639 5631 5637 5639 5649 5663 5667 5669 5669 5667
5586 5565 5539 5538 5529 5545 5558 5542 5513 5505 5495 5487 5480 5473 5474 5470 5468 5463 5466 5465 5463 5469 5465 5462 5461 5465 5467 5470 5474 5480 5491 5501 5516 5529 5542 5556 5573 5593 5611 5618 5619 5622 5631 5640 5642 5644 5661 5659 5661
5571 5561 5540 5546 5533 5536 5549 5513 5510 5498 5487 5484 5480 5472 5465 5460 5457 5452 5454 5451 5453 5458 5452 5449 5450 5455 5457 5457 5461 5466 5474 5483 5496 5507 5518 5538 5554 5570 5584 5595 5604 5607 5615 5615 5623 5648 5650 5651 5659
5568 5553 5558 5544 5538 5506 5510 5495 5496 5490 5482 5480 5469 5460 5453 5450 5446 5442 5442 5442 5442 5443 5437 5434 5439 5441 5440 5440 5442 5452 5461 5469 5478 5488 5499 5515 5531 5546 5562 5578 5586 5591 5600 5619 5618 5635 5639 5647 5654
5567 5564 5539 5527 5521 5521 5509 5504 5476 5474 5469 5466 5447 5439 5434 5438 5436 5433 5430 5430 5429 5428 5425 5423 5422 5422 5424 5427 5432 5439 5443 5452 5464 5470 5476 5489 5505 5521 5539 5559 5571 5583 5605 5620 5622 5630 5628 5632 5643
5548 5543 5541 5528 5507 5503 5478 5470 5476 5465 5459 5453 5441 5424 5425 5429 5425 5426 5420 5420 5417 5416 5415 5414 5414 5411 5413 5413 5419 5424 5432 5441 5446 5448 5453 5465 5479 5498 5509 5529 5549 5570 5599 5593 5589 5605 5632 5625 5632
5549 5542 5532 5503 5517 5490 5465 5446 5475 5453 5451 5444 5433 5421 5411 5413 5408 5417 5412 5407 5405 5406 5406 5406 5403 5402 5401 5405 5409 5415 5420 5425 5427 5428 5432 5438 5449 5467 5478 5496 5526 5551 5569 5581 5567 5586 5615 5620 5620